Location: Caser�o El Amunt
(41.4000°N, 1.9167°E)
Time: 02:39:20
(UTC+00:00)

Daily predictions for brighter satellites

Satellite Brightness Start Highest point End
(mag) Time Altitude Azimuth Time Altitude Azimuth Time Altitude Azimuth
CZ-4C R/B 4.5 03:25:49 16° ESE 03:26:20 16° ESE 03:29:24 10° ENE
ATLAS 3B R/B 4.4 03:30:34 22° NNE 03:32:03 23° NE 03:37:33 10° E
Lacrosse 4 Rocket 4.3 03:38:10 15° E 03:38:10 15° E 03:39:27 10° E
ALOS 4.5 03:51:38 10° NNE 04:02:13 - S 03:53:16 20° NE
NOSS 3-4 (A) 3.8 04:00:49 57° NE 04:00:49 57° NE 04:05:46 10° NE
NOSS 3-4 (C) 3.8 04:00:54 58° NE 04:00:54 58° NE 04:05:54 10° NE
NOSS 3-2 (C) 4.0 04:00:08 74° NNW 04:01:01 87° NE 04:09:41 10° SE
Milstar 3 Cent rocket 4.0 04:00:16 30° S 04:01:40 32° SSE 04:11:09 10° ESE
CENTAUR R/B 3.1 04:01:35 66° NNW 04:03:03 89° ENE 04:11:59 10° SSE
Cosmos 489 Rocket 4.5 04:12:53 74° S 04:12:53 74° S 04:18:35 10° SSE
Cosmos 1151 Rocket 4.3 04:17:01 39° E 04:17:01 39° E 04:20:52 10° SSE
ATLAS 2AS CENTAUR R/B 3.0 04:15:30 38° SSW 04:18:59 84° ESE 04:26:55 10° NE
ERS-2 4.3 04:17:28 10° SE 04:19:17 24° ESE 04:19:17 24° ESE
Atlas Centaur 2 3.8 04:26:40 25° SSW 04:28:14 28° S 04:33:03 10° ESE
NOSS 3-2 (A) 4.4 04:28:37 46° WSW 04:28:37 46° WSW 04:36:20 10° S
RESURS DK-1 4.0 04:26:56 14° SSE 04:29:57 34° ESE 04:33:44 10° NE
Lacrosse 5 2.0 04:32:03 64° NNE 04:32:03 64° NNE 04:36:24 10° NE
ATLAS CENTAUR R/B 3.5 04:32:06 17° NNE 04:32:51 18° NE 04:35:33 10° E
ADEOS 3.5 04:30:39 10° NNE 04:35:54 82° ESE 04:41:08 10° SSW
Cosmos 1328 Rocket 4.0 04:35:40 42° NNE 04:36:54 59° E 04:41:16 10° SSE
OAO 2 Rocket 4.1 04:37:06 39° S 04:37:27 40° S 04:42:12 10° ESE
Cosmos 2263 Rocket 3.2 04:43:11 30° NNW 04:43:11 30° NNW 04:46:28 10° N
Gbstr 26 Del rocket 3.8 04:43:34 35° NE 04:43:34 35° NE 04:46:53 10° E
SJ 16-02 2.8 04:45:52 27° N 04:45:52 27° N 04:47:57 10° NNE
Meteor 1-4 Rocket 3.7 04:46:48 34° SSE 04:46:48 34° SSE 04:48:55 10° SSE
USA 238 DEB 4.3 04:45:52 38° WSW 04:45:52 38° WSW 04:52:35 10° S
USA 238 4.3 04:45:56 39° WSW 04:45:56 39° WSW 04:52:41 10° S
Cosmos 1898 Rocket 3.9 04:45:47 10° S 04:51:00 63° ESE 04:56:18 10° NNE
Meteor 1-26 Rocket 4.1 04:48:59 11° N 04:54:36 87° W 05:00:11 10° S
Cosmos 1408 Rocket 3.5 04:56:11 10° S 05:00:38 90° SSE 05:05:07 10° N
FENGYUN 3A 3.7 04:55:30 10° N 05:00:45 53° WNW 05:05:58 10° SSW
COSMO-SKYMED 1 2.6 05:00:03 10° SSE 05:04:22 78° ENE 05:07:59 15° N
Cosmos 1709 Rocket 4.2 04:59:15 10° SSW 05:05:18 45° WNW 05:11:24 10° N
Cosmos 2181 Rocket 3.8 04:59:38 10° NNW 05:05:49 71° W 05:11:53 10° S
Cosmos 1937 Rocket 3.9 05:03:02 10° S 05:08:06 64° ESE 05:13:14 10° NNE
Cosmos 1603 4.5 05:12:25 30° WSW 05:12:25 30° WSW 05:17:01 10° SSW
Meteor 2-3 Rocket 3.9 05:07:04 10° SSW 05:12:37 51° WNW 05:18:15 10° N
CZ-4C R/B 1.9 05:11:05 26° SW 05:13:53 64° NW 05:19:39 10° NNE
Lacrosse 4 Rocket 1.8 05:14:32 41° W 05:14:56 42° WSW 05:19:06 10° S
Cosmos 1689 Rocket 2.0 05:14:36 10° SSE 05:17:27 77° ENE 05:18:12 45° N
FALCON 9 DEB 4.0 05:18:33 31° N 05:18:33 31° N 05:20:55 10° NE
Cosmos 1943 3.9 05:17:53 30° W 05:18:29 31° WSW 05:23:23 10° SSW
CZ-4B R/B 3.0 05:14:52 10° N 05:19:23 81° WNW 05:23:45 10° SSW
SAR-Lupe-4 3.5 05:17:42 10° S 05:21:14 62° WSW 05:22:38 33° NNW
Aureole 2 Rocket 3.3 05:19:51 10° S 05:22:13 35° ESE 05:24:34 10° NE
ATLAS 3B R/B 2.8 05:17:51 16° NNW 05:23:43 85° ENE 05:30:59 10° SE
Cosmos 1862 3.6 05:21:25 10° S 05:25:26 72° E 05:29:30 10° NNE
Genesis I 3.2 05:24:54 28° WSW 05:26:41 55° NW 05:30:28 10° NNE
YAOGAN 6 4.1 05:26:43 10° NNE 05:30:00 38° E 05:33:15 10° SSE
Cosmos 858 Rocket 4.4 05:27:10 10° SSW 05:32:22 79° WNW 05:37:39 10° NNE
deb Chang Zheng 4 4.1 05:29:07 10° N 05:33:03 34° WNW 05:36:59 10° SW
ALOS 3.6 05:29:28 10° NNW 05:31:44 20° NW 05:31:44 20° NW
Cosmos 990 Rocket 4.2 05:28:43 10° SW 05:33:45 47° WNW 05:38:50 10° N
Cosmos 2074 Rocket 3.9 05:29:03 10° SSW 05:35:12 67° W 05:41:24 10° N
PSLV R/B 4.0 05:35:03 10° NNE 05:38:54 71° ESE 05:42:38 10° S
ASTRO F (AKARI) 4.0 05:37:43 10° N 05:40:49 80° WNW 05:43:58 10° SSW
BREEZE M DEB (TANK) 3.1 05:30:42 10° SW 05:40:53 81° SSE 05:43:59 10° ENE
Cosmos 405 Rocket 2.5 05:37:36 10° SSW 05:41:15 80° W 05:45:00 10° N
EO 1 Delta rocket 3.8 05:40:25 10° S 05:45:37 76° W 05:50:16 10° NNW
Cosmos 1812 2.6 05:44:40 10° N 05:48:31 79° W 05:52:21 10° S
Cosmos 2228 Rocket 3.0 05:46:40 10° N 05:51:05 78° W 05:55:27 10° S
PSLV R/B 4.3 05:47:11 10° S 05:51:06 41° W 05:55:02 10° NNW
Cosmos 1515 Rocket 4.2 05:47:27 10° NNW 05:51:32 35° W 05:55:35 10° SSW
SKYMED 2 4.4 05:48:44 10° SSW 05:52:33 30° W 05:56:25 10° NW
SL-4 R/B 3.7 05:50:37 13° NNW 05:52:39 18° N 05:55:15 10° NE
Cosmos 2184 Rocket 4.2 05:46:40 10° SSW 05:52:46 51° WNW 05:58:58 10° N
CENTAUR R/B 4.3 05:48:50 16° WNW 05:53:08 23° WSW 05:59:34 10° SSW
GPS 2-04 Rocket1 4.0 05:50:40 12° WSW 05:53:43 31° S 05:57:06 10° SE
Cosmos 1782 3.9 05:52:15 16° NW 05:54:23 23° W 05:57:36 10° SW
ERS-2 4.1 05:52:39 10° SW 05:53:52 13° WSW 05:53:52 13° WSW
Cosmos 1844 Rocket 3.0 05:54:04 10° SW 05:59:27 44° WNW 06:04:53 10° NNE
USA 234 3.4 05:53:22 10° NE 05:59:56 80° SE 06:06:29 10° SW
Spot 2 4.4 05:56:11 10° N 06:01:20 74° WNW 06:06:20 10° SSW
Cosmos 1680 Rocket 4.5 06:00:28 10° NW 06:04:56 28° W 06:09:23 10° SSW
COSMOS 2455 2.8 06:01:30 10° SSW 06:07:32 79° WNW 06:13:36 10° NNE
RESURS DK-1 3.6 06:04:48 10° WSW 06:08:04 22° NW 06:11:20 10° N
Cosmos 1707 Rocket 4.2 06:03:50 10° N 06:08:06 58° E 06:12:21 10° SSE
BREEZE-M (TANK) 3.6 06:00:19 10° SW 06:09:33 62° SSE 06:12:28 10° ENE
MOS 1-B 4.4 06:04:27 10° NNE 06:10:19 85° WNW 06:16:07 10° SSW
ATLAS 2AS CENTAUR R/B 3.8 06:04:06 10° W 06:10:53 30° NW 06:17:33 10° NNE
ATLAS CENTAUR R/B 1.6 06:08:18 10° NW 06:11:54 45° WSW 06:15:43 10° S
BREEZE-M DEB 3.4 06:02:57 11° WNW 06:11:59 81° SW 06:14:55 10° SE
Cosmos 1500 Rocket 4.3 06:08:51 10° SW 06:12:36 29° WNW 06:16:23 10° NNW
Cosmos 1844 4.0 06:08:08 10° SW 06:13:22 42° WNW 06:18:40 10° NNE
NOAA 6 4.0 06:08:16 10° N 06:13:23 71° WNW 06:18:28 10° SSW
Lacrosse 5 3.2 06:11:17 11° WNW 06:15:00 22° NNW 06:18:53 10° NNE
H-2A R/B 3.6 06:12:26 10° N 06:15:52 30° WNW 06:19:16 10° SW
Atlas Centaur 2 3.7 06:11:45 10° WSW 06:16:37 25° S 06:20:40 10° SE
Cosmos 372 Rocket 3.9 06:11:47 10° SSW 06:16:48 61° WNW 06:21:52 10° NNE
CZ-4B DEB 4.2 06:13:09 10° N 06:18:33 63° WNW 06:23:56 10° SSW
Cosmos 1437 Rocket 2.7 06:14:56 10° NNW 06:18:39 57° W 06:22:20 10° S
Okean O Rocket 1.8 06:17:38 10° NNE 06:22:06 83° ESE 06:26:34 10° SSW
USA 81 4.1 06:17:38 10° S 06:22:54 89° E 06:28:11 10° N
PAYLOAD B 4.2 06:19:31 10° N 06:25:00 68° WNW 06:30:27 10° SSW
SMAP 3.0 06:21:09 10° N 06:25:49 79° WNW 06:30:27 10° SSW
ATLAS 5 CENTAUR R/B 1.5 06:26:05 10° SSW 06:30:04 82° ESE 06:34:29 10° NE
Gbstr 26 Del rocket 3.6 06:26:35 10° WNW 06:30:04 36° SW 06:33:54 10° SSE
Cosmos 2218 Rocket 4.3 06:26:59 10° S 06:33:15 76° E 06:39:27 10° N
